Showing default

COSMOS 90, 1588

Orbit data source: Space-Track

COSMOS 90, 1588 is a payload satellite owned by OKB-10 (CIS) in LEO that was launched on Sat, 18 Sep 1965 UTC via a KOSMOS 65S3 launch vehicle from the Tyuratam Missile And Space Complex (TTMTR). Payloads include a variety of satellites, spacecraft, and rockets equipped with specific instruments for various scientific and technological missions. These include communications satellites like Starlink; space stations such as the ISS; scientific satellites like the Hubble; Earth observation satellites from companies like Planet Labs, Umbra, and HawkEye 360; GPS; miniature CubeSats for education and research; and military/defense satellites.

Loading next visibility...
COSMOS 90 details
Identifier
1588, 1965-073E
Orbit
LEO
Last TLE update13 hours ago
Origin
Flag of CISOKB-10 (CIS)
ManufacturerOKB-10
MissionDefense Communications
Bus & MotorSTRELA-1 11F610, Unknown motor
Mass50 kg wet, 50 kg dry
Launch date (UTC)
1965-09-18 (59 years ago)
Launch vehicle
KOSMOS 65S3
Launch site
Tyuratam Missile And Space Complex (TTMTR)
Object type
Payload
Rocket body
Debris
Shape & HBRPoly, 0.8 m
Radar Cross Section0.731 m², Medium (>0.1 m² and < 1m²)

Expand to show TLE details & history

TLE from 13 hours ago
0 COSMOS 90
1  1588U 65073E   24356.12485205 -.00000069  00000-0  17722-3 0  9998
2  1588  56.0556 256.4427 0158330  87.1443  60.4753 12.34585368672586
Epoch: 2024-12-21T02:59Z
Definitive object data (Epoch: 2024-12-21T02:59:47.217Z)
Latitude25.18305°
Longitude-77.04155°
Altitude1,470.685 km
Speed7.158 km/s
True Right ascension03h 52m 20s
True Declination25° 03' 46"
Sunlit
Object was in full shadow at TLE epoch
Visualization TLE readout
Latitude8.23582°
Longitude125.47232°
Altitude1,501.795 km
Speed7.128 km/s
Apparent Right ascension19h 51m 07s
Apparent Declination-31° 08' 33"
Sunlit
Object is in daylight
Visualization observer readout
Local Sidereal Time14:54:22
Azimuth123.56° SE
Elevation-8.8°
Doppler factor1
Orbital elements
Apogee altitude1,654.666 km
Perigee altitude1,404.264 km
Semi-major axis7,907.602 km
Eccentricity0.015833
Inclination56.0556°
RAAN256.4427°
Arg. of periapsis87.1443°
True anomaly62.06936°
Mean anomaly60.4753°
Eccentric anomaly61.27079°
Mean motion3.08657 °/min
BSTAR0.00017722
Orbital period116.63 mins
Loading maneuver chart data...
Loading historical data...
Loading historical data...
Loading historical data...
Loading historical data...
Loading historical data...
Loading historical data...
Loading historical data...

COSMOS 90 Visibility forecast

Observer location: undefined°, undefined

Span
Click to sort rows by Start time (UTC) header in descending order
Start Az.
Max El. time (UTC)
Max El. Az.
Max El.
End time (UTC)
End Az.
10 mins2024-12-21 17:52:00.380Z150.242° SSE2024-12-21 17:57:00.380Z113.308° SE17.578°2024-12-21 18:02:00.380Z76.648° E
16 mins2024-12-21 19:50:00.380Z216.072° SW2024-12-21 19:58:00.380Z97.071° ESE44.278°2024-12-21 20:06:00.380Z47.352° ENE
13 mins2024-12-21 21:54:00.380Z274.636° WNW2024-12-21 22:00:00.380Z332.251° NNW31.897°2024-12-21 22:07:00.380Z37.802° NE
12 mins2024-12-21 23:59:00.380Z314.856° NW2024-12-22 00:04:00.380Z357.342° N24.241°2024-12-22 00:11:00.380Z55.872° ENE
14 mins2024-12-22 02:02:00.380Z323.69° NNW2024-12-22 02:09:00.380Z37.184° NE35.081°2024-12-22 02:16:00.380Z98.91° ESE
15 mins2024-12-22 04:04:00.380Z307.357° NW2024-12-22 04:11:00.380Z226.064° WSW41.794°2024-12-22 04:19:00.380Z154.008° SSE
4 mins2024-12-22 06:10:00.380Z257.13° W2024-12-22 06:11:00.380Z249.998° W12.332°2024-12-22 06:14:00.380Z229.236° WSW
|